Lexington Weather

Lexington, Massachusetts, USA

39°F
3/30/2020 8:13am 
  • Lexington Conditions: Mist, Overcast
  • Temperature: 39.4°F / 4.1°C 
  • Dew Point: 38.7°F 
  • Relative Humidity: 97
  • Wind: Wind from E E 1 mph, 10-min avg: 3 mph, gust: 7 mph
  • Barometer: 29.96 in Steady
  • Visibility: 2 miles
  • Rain Today: 0.02 in
  •   

Regional Weather Roundup
for Boston / Norton, MA

        
000
ASUS41 KBOX 291604
RWRBOX

REGIONAL WEATHER ROUNDUP
NATIONAL WEATHER SERVICE BOSTON/NORTON MA
1200 PM EDT SUN MAR 29 2020

NOTE:  "FAIR" INDICATES FEW OR NO CLOUDS BELOW 12,000 FEET WITH NO 
SIGNIFICANT WEATHER AND/OR OBSTRUCTIONS TO VISIBILITY.

MAZALL-291700-
EASTERN MASSACHUSETTS
  
CITY           SKY/WX    TMP DP  RH WIND       PRES   REMARKS
BOSTON         DRIZZLE   42  37  82 E14       30.16F                  
BEVERLY        CLOUDY    44  38  79 E13       30.16F                  
LAWRENCE       CLOUDY    43  38  82 E9G18     30.18F                  
BEDFORD        LGT RAIN  43  41  93 E9        30.15S FOG              
BLUE HILL        N/A     42  41  96 E13G26    30.11F                  
NORWOOD        CLOUDY    46  42  86 E9        30.14F FOG              
MARSHFIELD     CLOUDY    45  43  93 E10G18    30.14F FOG              
PLYMOUTH       LGT RAIN  43  41  93 E15G25    30.13F FOG              
TAUNTON        CLOUDY    44  42  93 E13G20    30.12F FOG              
NEW BEDFORD    CLOUDY    44  43  96 E13G21    30.10F                  
$$

MAZALL-291700-
CAPE COD AND THE ISLANDS
  
CITY           SKY/WX    TMP DP  RH WIND       PRES   REMARKS
FALMOUTH       CLOUDY    43  43 100 SE17G29   30.11F FOG              
HYANNIS        CLOUDY    45  41  86 E12G24    30.09F FOG              
CHATHAM        LGT RAIN  43  38  82 E15G25    30.15S                  
PROVINCETOWN   CLOUDY    45  36  70 E14G20    30.15F                  
NANTUCKET      CLOUDY    46  41  82 E18G33    30.10F                  
MARTHAS VNYRD  CLOUDY    47  42  83 E17G26    30.08F                  
$$
 
MAZALL-291700-
CENTRAL AND WESTERN MASSACHUSETTS
  
CITY           SKY/WX    TMP DP  RH WIND       PRES   REMARKS
WORCESTER      LGT RAIN  43  42  97 E8        30.13R VSB 1            
FITCHBURG      LGT RAIN  44  41  89 E7        30.15R FOG              
ORANGE         RAIN      46  44  93 SE3       30.14R FOG              
SPRINGFIELD    LGT RAIN  46  46  99 E7        30.07F FOG              
WESTFIELD      LGT RAIN  46  44  93 NE8       30.07F                  
NORTH ADAMS    RAIN      45  40  82 E18G36    30.01F                  
PITTSFIELD     LGT RAIN  44  40  85 E9        29.98F                  
$$
 
RIZALL-291700-
RHODE ISLAND
  
CITY           SKY/WX    TMP DP  RH WIND       PRES   REMARKS
PROVIDENCE     LGT RAIN  46  44  93 E7        30.12F FOG              
NEWPORT        CLOUDY    46  42  86 E13G28    30.09R FOG              
BLOCK ISLAND   CLOUDY    44  41  89 E15G24      N/A                   
SMITHFIELD     LGT RAIN  45  44  97 E12       30.12S FOG              
WESTERLY       LGT RAIN  48  42  80 E17G26    30.07F                  
$$
 
CTZALL-291700-
CONNECTICUT
  
CITY           SKY/WX    TMP DP  RH WIND       PRES   REMARKS
BRADLEY INTL   LGT RAIN  46  45  96 E10       30.06F FOG              
HARTFORD       LGT RAIN  47  45  93 E6        30.08F FOG              
BRIDGEPORT     TSTM      46  44  93 NE18G28   30.08S FOG              
DANBURY        LGT RAIN  47  44  90 E12G24    30.01F FOG              
GROTON         LGT RAIN  44  44 100 E18G29    30.06F FOG              
NEW HAVEN      CLOUDY    48  46  93 NE10G22   30.06F FOG              
CHESTER        LGT RAIN  45  45 100 E14G21    30.07R VSB 1            
MERIDEN        LGT RAIN  47  44  90 E7        30.06F                  
WILLIMANTIC    LGT RAIN  46  44  93 CALM      30.16R FOG              
OXFORD         LGT RAIN  46  45  96 E16       30.04F                  
$$

MEZ002-015-021-024-NHZ003-005-008-011-012-014-VTZ005-008-291700-
NORTHERN NEW ENGLAND
  
CITY           SKY/WX    TMP DP  RH WIND       PRES   REMARKS
PORTLAND ME    LGT RAIN  45  36  70 E8        30.24F                  
BANGOR ME      CLOUDY    51  22  31 SE9       30.24S                  
CONCORD NH     LGT RAIN  41  38  89 E7        30.18S FOG              
MANCHESTER NH  LGT RAIN  43  38  82 E12       30.16F                  
NASHUA NH      LGT RAIN  43  43 100 E7        30.19R FOG              
PORTSMOUTH NH  LGT RAIN  41  35  79 E12       30.19F                  
JAFFREY NH     HVY RAIN  43  41  93 VRB3      30.12S FOG              
KEENE NH       RAIN      44  42  93 CALM      30.14R                  
BURLINGTON VT  LGT RAIN  47  41  80 S10G20    29.98F                  
MT. WASHINGTON SLEET     19  19 100 SE38        N/A  VSB 0   WCI  -1  
$$

NYZ052-076-291700-
EASTERN NEW YORK
  
CITY           SKY/WX    TMP DP  RH WIND       PRES   REMARKS
ALBANY         CLOUDY    48  43  82 S7        29.97F                  
NEW YORK CITY  DRIZZLE   46  44  93 E23       29.98F FOG              
$$
 
ANZALL-291700-
MARINE OBSERVATIONS
  
STATION/POSITION TIME  TEMP    WIND        PRES    VSBY  WAVE
                       AIR SEA DIR/SP/G                  HT/PER
                 (UTC) (F)     (DEG/KT/KT) (MB)    (MI)  (FT/S)
BOSTON BUOY      1550   44 43   80/ 12/ 14 1021.1F         3/ 5
BUZZARDS BAY     1500           90/ 23/ 26 1020.0R
NANTUCKET SOUND  NOT AVBL
MASS BAY-STELLWA 1504   43 42  110/  8/ 10 1020.6R  1 7/8  2/ 5
ISLE OF SHOALS   1500   42      80/ 12/ 13 1022.7R
S OF BLOCK IS    1530      44                N/A          10/ 8
$$

......................KEY.........................
  SKY/WX - SKY CONDITION/PRESENT WEATHER
  TMP    - TEMPERATURE IN FAHRENHEIT
  DWPT   - DEWPOINT IN FAHRENHEIT
  RH     - RELATIVE HUMIDITY IN PERCENT
  WIND   - DIRECTION AND SPEED IN MPH
  PRES   - MEAN SEA LEVEL PRESSURE IN INCHES OF HG
  WCI    - WIND CHILL INDEX
  VSB    - VISIBILITY IN MILES
  HX     - HEAT INDEX
  TC     - TEMPERATURE IN CELSIUS
  VRB    - VARIABLE WIND DIRECTION
  N/A    - NOT AVAILABLE
  
      

Other recent Regional Weather Roundups

Mon Mar 30, 7:04am

Mon Mar 30, 6:04am

Mon Mar 30, 5:04am

Mon Mar 30, 4:04am

Mon Mar 30, 3:05am

Mon Mar 30, 2:04am

Mon Mar 30, 1:04am

Mon Mar 30, 12:04am

Sun Mar 29, 11:04pm

Sun Mar 29, 10:05pm

Sun Mar 29, 9:04pm

Sun Mar 29, 8:04pm

Sun Mar 29, 7:04pm

Sun Mar 29, 6:04pm

Sun Mar 29, 5:05pm

Sun Mar 29, 4:04pm

Sun Mar 29, 3:04pm

Sun Mar 29, 2:04pm

Sun Mar 29, 1:05pm

Sun Mar 29, 11:04am

Sun Mar 29, 10:04am

Sun Mar 29, 9:04am

Sun Mar 29, 8:04am

Sun Mar 29, 7:04am

Sun Mar 29, 6:04am

Sun Mar 29, 5:04am

Sun Mar 29, 4:04am

Sun Mar 29, 3:04am

Sun Mar 29, 2:04am

Sun Mar 29, 1:04am

Sun Mar 29, 12:04am

Sat Mar 28, 11:05pm

Sat Mar 28, 10:04pm

Sat Mar 28, 9:04pm

Sat Mar 28, 8:04pm

Sat Mar 28, 7:04pm

Sat Mar 28, 6:04pm

Sat Mar 28, 5:05pm

Sat Mar 28, 4:04pm

Sat Mar 28, 3:04pm

Sat Mar 28, 2:04pm

Sat Mar 28, 1:05pm

Sat Mar 28, 12:04pm

Sat Mar 28, 11:04am

Sat Mar 28, 10:04am

Sat Mar 28, 9:04am

Sat Mar 28, 8:04am

Sat Mar 28, 7:04am

Sat Mar 28, 6:04am

Sat Mar 28, 5:04am

Sat Mar 28, 4:04am

Sat Mar 28, 3:04am

Sat Mar 28, 2:04am

Sat Mar 28, 1:04am

Sat Mar 28, 12:04am

Fri Mar 27, 11:04pm

Fri Mar 27, 10:04pm

Fri Mar 27, 9:04pm

Fri Mar 27, 8:04pm

Fri Mar 27, 7:05pm

Fri Mar 27, 6:04pm

Fri Mar 27, 5:05pm

Fri Mar 27, 4:05pm

Fri Mar 27, 3:04pm

Fri Mar 27, 2:05pm

Fri Mar 27, 1:04pm

Fri Mar 27, 12:04pm

Fri Mar 27, 11:04am

Fri Mar 27, 10:04am

Fri Mar 27, 9:04am

Fri Mar 27, 8:04am

Meta data:

ID: af411b67-d4c8-4ad7-aa1f-8f718f5ebf1d
Link: https://api.weather.gov/products/af411b67-d4c8-4ad7-aa1f-8f718f5ebf1d